Weather History for Bentonville, AR

Change the Weather History Date:

Saturday, November 19, 2011

  Actual Average Record
Temperature  
Mean Temperature 57 °F -  
Max Temperature 64 °F 57 °F 75 °F (1950)
Min Temperature 50 °F 37 °F 18 °F (1951)
Degree Days  
Heating Degree Days 8    
Growing Degree Days 7 (Base 50)    
Moisture  
Dew Point 50 °F    
Average Humidity 71    
Maximum Humidity 82    
Minimum Humidity 44    
Precipitation  
Precipitation 0.00 in - - ()
Sea Level Pressure  
Sea Level Pressure 29.85 in    
Wind  
Wind Speed 14 mph (South)    
Max Wind Speed 21 mph    
Max Gust Speed 29 mph    
Visibility 10 miles    
Events      
Averages and records for this station are not official NWS values.
T = Trace of Precipitation, MM = Missing Value Source: NWS Daily Summary

Daily Weather History Graph

Daily Weather History Graph

Search for Another Location

Airport:

Trip Planner

Search our weather history database for the weather conditions in past years. The results will help you decide how hot, cold, wet, or windy it might be!

Date:

Astronomy

Nov. 19, 2011 Rise Set
Actual Time 6:57 AM CST 5:06 PM CST
Civil Twilight 6:30 AM CST 5:33 PM CST
Nautical Twilight 5:58 AM CST 6:05 PM CST
Astronomical Twilight 5:28 AM CST 6:35 PM CST
Moon 12:29 AM CST (11/19) 1:14 PM CST (11/19)
Length of Visible Light 11h 03m
Length of Day
10h 08m
Last Quarter, 38% of the Moon is Illuminated
Nov 19
Last Quarter
Nov 25
New
Dec 2
First Quarter
Dec 10
Full
Dec 17
Last Quarter

Hourly Weather History & Observations

Time (CST) Temp. Dew Point Humidity Pressure Visibility Wind Dir Wind Speed Gust Speed Precip Events Conditions
12:15 AM 50.0 °F 30.2 °F 47% 29.88 in 10.0 mi South 12.7 mph 19.6 mph N/A   Clear
12:35 AM 51.8 °F 30.2 °F 44% 29.87 in 10.0 mi South 12.7 mph 19.6 mph N/A   Partly Cloudy
12:55 AM 51.8 °F 30.2 °F 44% 29.87 in 10.0 mi South 10.4 mph 20.7 mph N/A   Mostly Cloudy
1:35 AM 51.8 °F 33.8 °F 50% 29.86 in 10.0 mi South 12.7 mph 17.3 mph N/A   Overcast
1:55 AM 53.6 °F 33.8 °F 47% 29.85 in 10.0 mi South 12.7 mph 18.4 mph N/A   Overcast
2:15 AM 51.8 °F 35.6 °F 54% 29.85 in 10.0 mi South 13.8 mph 19.6 mph N/A   Overcast
2:35 AM 53.6 °F 35.6 °F 51% 29.84 in 10.0 mi South 11.5 mph 19.6 mph N/A   Overcast
2:55 AM 53.6 °F 37.4 °F 54% 29.84 in 10.0 mi South 11.5 mph 19.6 mph N/A   Overcast
3:15 AM 53.6 °F 37.4 °F 54% 29.84 in 10.0 mi South 11.5 mph 18.4 mph N/A   Overcast
3:35 AM 55.4 °F 41.0 °F 58% 29.84 in 10.0 mi South 15.0 mph 21.9 mph N/A   Overcast
3:55 AM 55.4 °F 42.8 °F 63% 29.83 in 10.0 mi South 17.3 mph 25.3 mph N/A   Mostly Cloudy
4:15 AM 55.4 °F 42.8 °F 63% 29.83 in 10.0 mi South 16.1 mph 24.2 mph N/A   Overcast
4:35 AM 55.4 °F 42.8 °F 63% 29.83 in 10.0 mi South 18.4 mph 25.3 mph N/A   Overcast
4:55 AM 55.4 °F 44.6 °F 67% 29.83 in 10.0 mi South 12.7 mph 23.0 mph N/A   Overcast
5:15 AM 55.4 °F 44.6 °F 67% 29.82 in 10.0 mi South 16.1 mph 23.0 mph N/A   Overcast
5:35 AM 55.4 °F 46.4 °F 72% 29.82 in 10.0 mi South 12.7 mph 20.7 mph N/A   Overcast
6:15 AM 55.4 °F 46.4 °F 72% 29.82 in 10.0 mi South 18.4 mph 28.8 mph N/A   Overcast
6:55 AM 57.2 °F 48.2 °F 72% 29.82 in 10.0 mi South 15.0 mph 23.0 mph N/A   Overcast
7:15 AM 57.2 °F 48.2 °F 72% 29.82 in 10.0 mi South 17.3 mph 25.3 mph N/A   Overcast
7:35 AM 57.2 °F 48.2 °F 72% 29.83 in 10.0 mi South 15.0 mph 24.2 mph N/A   Overcast
7:55 AM 57.2 °F 48.2 °F 72% 29.83 in 10.0 mi South 16.1 mph 23.0 mph N/A   Overcast
8:15 AM 57.2 °F 48.2 °F 72% 29.84 in 10.0 mi South 18.4 mph 25.3 mph N/A   Overcast
8:35 AM 57.2 °F 50.0 °F 77% 29.85 in 10.0 mi South 16.1 mph 20.7 mph N/A   Overcast
8:55 AM 57.2 °F 50.0 °F 77% 29.85 in 10.0 mi South 19.6 mph 26.5 mph N/A   Overcast
9:15 AM 57.2 °F 50.0 °F 77% 29.85 in 10.0 mi South 15.0 mph 23.0 mph N/A   Overcast
9:35 AM 57.2 °F 51.8 °F 82% 29.85 in 10.0 mi South 16.1 mph 21.9 mph N/A   Overcast
9:55 AM 57.2 °F 51.8 °F 82% 29.86 in 10.0 mi South 17.3 mph 25.3 mph N/A   Overcast
10:15 AM 59.0 °F 51.8 °F 77% 29.86 in 10.0 mi South 13.8 mph 24.2 mph N/A   Overcast
10:55 AM 60.8 °F 53.6 °F 77% 29.85 in 10.0 mi South 16.1 mph 23.0 mph N/A   Overcast
11:15 AM 62.6 °F 53.6 °F 72% 29.85 in 10.0 mi South 13.8 mph 23.0 mph N/A   Overcast
11:35 AM 62.6 °F 53.6 °F 72% 29.84 in 10.0 mi South 20.7 mph 28.8 mph N/A   Overcast
11:55 AM 62.6 °F 55.4 °F 77% 29.83 in 10.0 mi South 18.4 mph 25.3 mph N/A   Overcast
12:15 PM 62.6 °F 55.4 °F 77% 29.82 in 10.0 mi South 15.0 mph 24.2 mph N/A   Overcast
12:35 PM 64.4 °F 55.4 °F 73% 29.82 in 10.0 mi South 16.1 mph 19.6 mph N/A   Overcast
1:35 PM 64.4 °F 55.4 °F 73% 29.80 in 10.0 mi South 15.0 mph 27.6 mph N/A   Overcast
1:55 PM 64.4 °F 55.4 °F 73% 29.80 in 10.0 mi South 15.0 mph 21.9 mph N/A   Overcast
2:15 PM 64.4 °F 55.4 °F 73% 29.79 in 10.0 mi South 15.0 mph 26.5 mph N/A   Overcast
2:35 PM 64.4 °F 55.4 °F 73% 29.80 in 10.0 mi South 15.0 mph 26.5 mph N/A   Overcast
2:55 PM 64.4 °F 57.2 °F 77% 29.80 in 10.0 mi SSW 13.8 mph 23.0 mph N/A   Overcast
3:15 PM 64.4 °F 57.2 °F 77% 29.81 in 10.0 mi SSW 11.5 mph 26.5 mph N/A   Overcast
3:35 PM 64.4 °F 57.2 °F 77% 29.82 in 10.0 mi SSW 12.7 mph 24.2 mph N/A   Overcast
3:55 PM 64.4 °F 57.2 °F 77% 29.83 in 10.0 mi SSW 13.8 mph 21.9 mph N/A   Overcast
4:15 PM 64.4 °F 57.2 °F 77% 29.84 in 10.0 mi SSW 12.7 mph 21.9 mph N/A   Overcast
4:35 PM 64.4 °F 57.2 °F 77% 29.84 in 10.0 mi South 12.7 mph 21.9 mph N/A   Overcast
4:55 PM 64.4 °F 57.2 °F 77% 29.85 in 10.0 mi SSW 11.5 mph 20.7 mph N/A   Mostly Cloudy
5:15 PM 64.4 °F 57.2 °F 77% 29.85 in 10.0 mi SSW 13.8 mph 19.6 mph N/A   Scattered Clouds
5:35 PM 64.4 °F 57.2 °F 77% 29.86 in 10.0 mi SSW 11.5 mph 17.3 mph N/A   Partly Cloudy
6:15 PM 64.4 °F 57.2 °F 77% 29.87 in 10.0 mi South 10.4 mph 17.3 mph N/A   Scattered Clouds
6:35 PM 62.6 °F 57.2 °F 82% 29.88 in 10.0 mi South 12.7 mph 17.3 mph N/A   Partly Cloudy
6:55 PM 62.6 °F 57.2 °F 82% 29.89 in 10.0 mi South 13.8 mph 20.7 mph N/A   Partly Cloudy
7:15 PM 62.6 °F 57.2 °F 82% 29.90 in 10.0 mi South 10.4 mph 16.1 mph N/A   Clear
7:35 PM 62.6 °F 57.2 °F 82% 29.91 in 10.0 mi South 10.4 mph - N/A   Clear
8:15 PM 62.6 °F 57.2 °F 82% 29.92 in 10.0 mi South 9.2 mph - N/A   Mostly Cloudy
8:35 PM 62.6 °F 57.2 °F 82% 29.93 in 10.0 mi South 9.2 mph - N/A   Overcast
8:55 PM 62.6 °F 57.2 °F 82% 29.93 in 10.0 mi South 6.9 mph - N/A   Overcast
9:15 PM 64.4 °F 57.2 °F 77% 29.94 in 10.0 mi South 8.1 mph - N/A   Overcast
9:35 PM 62.6 °F 57.2 °F 82% 29.94 in 10.0 mi South 4.6 mph - N/A   Overcast
9:55 PM 62.6 °F 57.2 °F 82% 29.94 in 10.0 mi South 5.8 mph - N/A   Mostly Cloudy
10:15 PM 60.8 °F 57.2 °F 88% 29.94 in 10.0 mi South 5.8 mph - N/A   Mostly Cloudy
10:35 PM 60.8 °F 57.2 °F 88% 29.95 in 10.0 mi Calm Calm - N/A   Overcast
10:55 PM 60.8 °F 57.2 °F 88% 29.96 in 10.0 mi NW 4.6 mph - N/A   Overcast
11:15 PM 60.8 °F 57.2 °F 88% 29.97 in 10.0 mi North 5.8 mph - N/A   Overcast
11:35 PM 62.6 °F 57.2 °F 82% 29.97 in 10.0 mi North 3.5 mph - N/A   Overcast